Time,TemperatureF,DewpointF,PressureIn,WindDirection,WindDirectionDegrees,WindSpeedMPH,WindSpeedGustMPH,Humidity,HourlyPrecipIn,Conditions,Clouds,dailyrainin,SoftwareType,DateUTC
2013-06-10 00:00:00,66.2,39.8,29.26,ESE,116,3.0,5.0,38,0.00,,,0.00,Weather View 32 v70,2013-06-10 04:00:00,
2013-06-10 00:10:00,66.2,39.8,29.26,ESE,111,0.0,5.0,38,0.00,,,0.00,Weather View 32 v70,2013-06-10 04:10:00,
2013-06-10 00:20:00,66.2,39.8,29.26,SSE,158,0.0,5.0,38,0.00,,,0.00,Weather View 32 v70,2013-06-10 04:20:00,
2013-06-10 00:27:00,66.2,39.8,29.26,SSE,158,0.0,5.0,38,0.00,,,0.00,Weather View 32 v70,2013-06-10 04:27:00,
2013-06-10 00:40:00,66.0,39.6,29.29,ESE,117,2.0,5.0,38,0.00,,,0.00,Weather View 32 v70,2013-06-10 04:40:00,
2013-06-10 00:50:00,65.8,39.5,29.29,SE,134,0.0,4.0,38,0.00,,,0.00,Weather View 32 v70,2013-06-10 04:50:00,
2013-06-10 01:00:00,65.8,40.1,29.29,ESE,113,0.0,4.0,39,0.00,,,0.00,Weather View 32 v70,2013-06-10 05:00:00,
2013-06-10 01:10:00,65.7,40.0,29.26,ESE,112,4.0,4.0,39,0.00,,,0.00,Weather View 32 v70,2013-06-10 05:10:00,
2013-06-10 01:20:00,65.7,40.6,29.26,East,100,0.0,4.0,40,0.00,,,0.00,Weather View 32 v70,2013-06-10 05:20:00,
2013-06-10 01:27:00,65.7,40.6,29.26,East,100,0.0,4.0,40,0.00,,,0.00,Weather View 32 v70,2013-06-10 05:27:00,
2013-06-10 01:40:00,65.5,41.7,29.26,ESE,115,0.0,4.0,42,0.00,,,0.00,Weather View 32 v70,2013-06-10 05:40:00,
2013-06-10 01:50:00,65.1,43.2,29.26,ESE,122,0.0,4.0,45,0.00,,,0.00,Weather View 32 v70,2013-06-10 05:50:00,
2013-06-10 02:00:00,64.4,44.8,29.26,ESE,112,0.0,4.0,49,0.00,,,0.00,Weather View 32 v70,2013-06-10 06:00:00,
2013-06-10 02:10:00,63.5,45.5,29.26,ESE,106,0.0,4.0,52,0.00,,,0.00,Weather View 32 v70,2013-06-10 06:10:00,
2013-06-10 02:31:00,62.2,49.5,29.26,SSW,193,0.0,4.0,63,0.00,,,0.00,Weather View 32 v70,2013-06-10 06:31:00,
2013-06-10 02:40:00,61.5,50.8,29.26,South,169,0.0,0.0,68,0.00,,,0.00,Weather View 32 v70,2013-06-10 06:40:00,
2013-06-10 02:50:00,61.2,51.3,29.26,SSE,167,0.0,0.0,70,0.04,,,0.04,Weather View 32 v70,2013-06-10 06:50:00,
2013-06-10 03:00:00,61.0,51.9,29.26,SE,135,0.0,0.0,72,0.04,,,0.04,Weather View 32 v70,2013-06-10 07:00:00,
2013-06-10 03:10:00,60.8,52.1,29.26,SE,135,0.0,0.0,73,0.04,,,0.04,Weather View 32 v70,2013-06-10 07:10:00,
2013-06-10 03:20:00,60.6,52.6,29.26,SE,135,0.0,0.0,75,0.08,,,0.08,Weather View 32 v70,2013-06-10 07:20:00,
2013-06-10 03:30:00,60.6,53.0,29.26,SE,135,0.0,0.0,76,0.08,,,0.08,Weather View 32 v70,2013-06-10 07:30:00,
2013-06-10 03:40:00,60.6,53.3,29.26,SE,135,0.0,0.0,77,0.16,,,0.16,Weather View 32 v70,2013-06-10 07:40:00,
2013-06-10 03:50:00,60.6,54.1,29.26,SE,135,0.0,0.0,79,0.16,,,0.20,Weather View 32 v70,2013-06-10 07:50:00,
2013-06-10 04:00:00,60.3,54.4,29.26,SE,135,0.0,0.0,81,0.24,,,0.28,Weather View 32 v70,2013-06-10 08:00:00,
2013-06-10 04:10:00,60.3,54.7,29.23,SE,135,0.0,0.0,82,0.31,,,0.35,Weather View 32 v70,2013-06-10 08:10:00,
2013-06-10 04:20:00,60.4,55.2,29.23,SE,124,0.0,0.0,83,0.39,,,0.47,Weather View 32 v70,2013-06-10 08:20:00,
2013-06-10 04:30:00,60.8,55.9,29.23,SE,124,0.0,0.0,84,0.39,,,0.47,Weather View 32 v70,2013-06-10 08:30:00,
2013-06-10 04:40:00,61.0,56.1,29.23,SE,124,0.0,0.0,84,0.35,,,0.51,Weather View 32 v70,2013-06-10 08:40:00,
2013-06-10 04:50:00,61.3,57.1,29.23,ESE,117,2.0,3.0,86,0.31,,,0.51,Weather View 32 v70,2013-06-10 08:50:00,
2013-06-10 05:00:00,61.3,57.4,29.23,East,93,0.0,3.0,87,0.31,,,0.59,Weather View 32 v70,2013-06-10 09:00:00,
2013-06-10 05:10:00,61.5,57.9,29.21,East,99,0.0,4.0,88,0.24,,,0.59,Weather View 32 v70,2013-06-10 09:10:00,
2013-06-10 05:20:00,61.7,58.1,29.21,East,101,0.0,4.0,88,0.12,,,0.59,Weather View 32 v70,2013-06-10 09:20:00,
2013-06-10 05:30:00,61.7,58.1,29.21,ESE,112,0.0,4.0,88,0.12,,,0.59,Weather View 32 v70,2013-06-10 09:30:00,
2013-06-10 05:40:00,61.7,58.1,29.21,East,80,2.0,4.0,88,0.08,,,0.59,Weather View 32 v70,2013-06-10 09:40:00,
2013-06-10 05:50:00,62.1,58.8,29.21,East,93,0.0,4.0,89,0.08,,,0.59,Weather View 32 v70,2013-06-10 09:50:00,
2013-06-10 06:00:00,62.1,58.8,29.18,ESE,112,0.0,4.0,89,0.00,,,0.59,Weather View 32 v70,2013-06-10 10:00:00,
2013-06-10 06:10:00,62.1,58.8,29.21,ESE,114,2.0,4.0,89,0.00,,,0.59,Weather View 32 v70,2013-06-10 10:10:00,
2013-06-10 06:20:00,62.1,58.8,29.21,ESE,113,0.0,4.0,89,0.00,,,0.59,Weather View 32 v70,2013-06-10 10:20:00,
2013-06-10 06:30:00,62.1,58.5,29.21,ESE,120,0.0,4.0,88,0.00,,,0.59,Weather View 32 v70,2013-06-10 10:30:00,
2013-06-10 06:35:00,62.1,58.5,29.21,ESE,120,0.0,4.0,88,0.00,,,0.59,Weather View 32 v70,2013-06-10 10:35:00,
2013-06-10 06:40:00,62.1,58.5,29.21,ESE,118,0.0,4.0,88,0.00,,,0.59,Weather View 32 v70,2013-06-10 10:40:00,
2013-06-10 06:50:00,62.1,58.5,29.21,ESE,113,0.0,3.0,88,0.00,,,0.59,Weather View 32 v70,2013-06-10 10:50:00,
2013-06-10 07:00:00,62.1,58.5,29.21,ESE,113,0.0,3.0,88,0.00,,,0.59,Weather View 32 v70,2013-06-10 11:00:00,
2013-06-10 07:10:00,61.9,58.3,29.18,ESE,113,0.0,3.0,88,0.00,,,0.59,Weather View 32 v70,2013-06-10 11:10:00,
2013-06-10 07:20:00,61.9,58.3,29.18,ESE,113,0.0,3.0,88,0.00,,,0.59,Weather View 32 v70,2013-06-10 11:20:00,
2013-06-10 07:30:00,61.9,58.3,29.18,ESE,119,0.0,3.0,88,0.04,,,0.63,Weather View 32 v70,2013-06-10 11:30:00,
2013-06-10 07:35:00,61.9,58.3,29.18,ESE,119,0.0,3.0,88,0.04,,,0.63,Weather View 32 v70,2013-06-10 11:35:00,
2013-06-10 07:50:00,62.1,58.5,29.18,ESE,119,0.0,3.0,88,0.04,,,0.63,Weather View 32 v70,2013-06-10 11:50:00,
2013-06-10 08:00:00,62.1,58.5,29.18,ESE,119,0.0,3.0,88,0.04,,,0.63,Weather View 32 v70,2013-06-10 12:00:00,
2013-06-10 08:10:00,62.1,58.5,29.18,ESE,122,0.0,3.0,88,0.04,,,0.63,Weather View 32 v70,2013-06-10 12:10:00,
2013-06-10 08:20:00,62.1,58.5,29.18,ESE,122,0.0,3.0,88,0.08,,,0.67,Weather View 32 v70,2013-06-10 12:20:00,
2013-06-10 08:30:00,62.1,58.5,29.18,SE,131,0.0,0.0,88,0.08,,,0.71,Weather View 32 v70,2013-06-10 12:30:00,
2013-06-10 08:36:00,62.1,58.5,29.18,SE,131,0.0,0.0,88,0.08,,,0.71,Weather View 32 v70,2013-06-10 12:36:00,
2013-06-10 08:50:00,62.2,58.6,29.18,SE,126,0.0,0.0,88,0.08,,,0.71,Weather View 32 v70,2013-06-10 12:50:00,
2013-06-10 09:00:00,62.2,58.3,29.18,ESE,118,3.0,3.0,87,0.12,,,0.75,Weather View 32 v70,2013-06-10 13:00:00,
2013-06-10 09:10:00,62.6,58.3,29.18,ESE,113,0.0,4.0,86,0.12,,,0.75,Weather View 32 v70,2013-06-10 13:10:00,
2013-06-10 09:20:00,62.8,58.5,29.15,ESE,110,0.0,4.0,86,0.08,,,0.75,Weather View 32 v70,2013-06-10 13:20:00,
2013-06-10 09:30:00,63.0,58.7,29.15,ESE,111,0.0,4.0,86,0.04,,,0.75,Weather View 32 v70,2013-06-10 13:30:00,
2013-06-10 09:37:00,63.0,58.7,29.15,ESE,111,0.0,4.0,86,0.04,,,0.75,Weather View 32 v70,2013-06-10 13:37:00,
2013-06-10 09:50:00,63.1,59.2,29.18,SE,134,0.0,4.0,87,0.04,,,0.75,Weather View 32 v70,2013-06-10 13:50:00,
2013-06-10 10:00:00,63.3,59.4,29.18,ESE,117,0.0,4.0,87,0.00,,,0.75,Weather View 32 v70,2013-06-10 14:00:00,
2013-06-10 10:10:00,63.1,59.5,29.18,ESE,117,0.0,4.0,88,0.00,,,0.75,Weather View 32 v70,2013-06-10 14:10:00,
2013-06-10 10:20:00,63.0,59.3,29.15,NNW,344,0.0,3.0,88,0.12,,,0.87,Weather View 32 v70,2013-06-10 14:20:00,
2013-06-10 10:30:00,63.1,59.5,29.15,NNW,345,0.0,3.0,88,0.12,,,0.87,Weather View 32 v70,2013-06-10 14:30:00,
2013-06-10 10:38:00,63.1,59.5,29.15,NNW,345,0.0,3.0,88,0.12,,,0.87,Weather View 32 v70,2013-06-10 14:38:00,
2013-06-10 10:50:00,63.7,60.0,29.15,East,79,0.0,3.0,88,0.12,,,0.87,Weather View 32 v70,2013-06-10 14:50:00,
2013-06-10 11:00:00,64.0,60.4,29.15,East,79,0.0,0.0,88,0.12,,,0.87,Weather View 32 v70,2013-06-10 15:00:00,
2013-06-10 11:10:00,64.4,61.1,29.15,East,99,0.0,3.0,89,0.12,,,0.87,Weather View 32 v70,2013-06-10 15:10:00,
2013-06-10 11:20:00,64.8,61.4,29.15,ESE,115,0.0,3.0,89,0.00,,,0.87,Weather View 32 v70,2013-06-10 15:20:00,
2013-06-10 11:30:00,65.1,61.8,29.15,ESE,115,0.0,3.0,89,0.00,,,0.87,Weather View 32 v70,2013-06-10 15:30:00,
2013-06-10 11:39:00,65.1,61.8,29.15,ESE,115,0.0,3.0,89,0.00,,,0.87,Weather View 32 v70,2013-06-10 15:39:00,
2013-06-10 11:50:00,65.8,62.2,29.15,East,87,0.0,3.0,88,0.00,,,0.87,Weather View 32 v70,2013-06-10 15:50:00,
2013-06-10 12:00:00,65.8,61.8,29.15,East,87,0.0,3.0,87,0.00,,,0.87,Weather View 32 v70,2013-06-10 16:00:00,
2013-06-10 12:10:00,65.8,61.8,29.15,East,87,0.0,3.0,87,0.00,,,0.87,Weather View 32 v70,2013-06-10 16:10:00,
2013-06-10 12:20:00,65.8,61.5,29.15,ESE,119,0.0,2.0,86,0.00,,,0.87,Weather View 32 v70,2013-06-10 16:20:00,
2013-06-10 12:30:00,66.2,61.9,29.15,ESE,117,0.0,2.0,86,0.00,,,0.87,Weather View 32 v70,2013-06-10 16:30:00,
2013-06-10 12:40:00,66.2,61.9,29.15,South,170,0.0,0.0,86,0.00,,,0.87,Weather View 32 v70,2013-06-10 16:40:00,
2013-06-10 12:50:00,66.6,62.2,29.15,SE,130,0.0,0.0,86,0.00,,,0.87,Weather View 32 v70,2013-06-10 16:50:00,
2013-06-10 13:00:00,66.9,62.2,29.15,SE,130,0.0,0.0,85,0.00,,,0.87,Weather View 32 v70,2013-06-10 17:00:00,
2013-06-10 13:10:00,66.9,61.9,29.15,ESE,119,0.0,3.0,84,0.00,,,0.87,Weather View 32 v70,2013-06-10 17:10:00,
2013-06-10 13:20:00,66.7,61.4,29.12,ESE,119,0.0,3.0,83,0.00,,,0.87,Weather View 32 v70,2013-06-10 17:20:00,
2013-06-10 13:30:00,67.1,61.7,29.12,ESE,114,0.0,3.0,83,0.00,,,0.87,Weather View 32 v70,2013-06-10 17:30:00,
2013-06-10 13:40:00,67.1,61.4,29.12,ESE,114,0.0,3.0,82,0.00,,,0.87,Weather View 32 v70,2013-06-10 17:40:00,
2013-06-10 13:50:00,67.1,61.4,29.12,ESE,114,0.0,3.0,82,0.00,,,0.87,Weather View 32 v70,2013-06-10 17:50:00,
2013-06-10 14:00:00,66.9,61.2,29.12,ESE,114,0.0,3.0,82,0.00,,,0.87,Weather View 32 v70,2013-06-10 18:00:00,
2013-06-10 14:10:00,66.6,61.2,29.15,ESE,114,0.0,0.0,83,0.00,,,0.87,Weather View 32 v70,2013-06-10 18:10:00,
2013-06-10 14:20:00,66.9,61.9,29.15,ESE,114,0.0,0.0,84,0.00,,,0.87,Weather View 32 v70,2013-06-10 18:20:00,
2013-06-10 14:30:00,68.7,63.7,29.12,ESE,114,0.0,0.0,84,0.00,,,0.87,Weather View 32 v70,2013-06-10 18:30:00,
2013-06-10 14:40:00,69.4,62.3,29.12,ESE,114,0.0,0.0,78,0.00,,,0.87,Weather View 32 v70,2013-06-10 18:40:00,
2013-06-10 14:50:00,69.4,60.8,29.12,SSW,202,0.0,0.0,74,0.00,,,0.87,Weather View 32 v70,2013-06-10 18:50:00,
2013-06-10 15:00:00,69.3,60.2,29.12,SE,142,0.0,0.0,73,0.00,,,0.87,Weather View 32 v70,2013-06-10 19:00:00,
2013-06-10 15:10:00,70.5,61.4,29.12,ESE,103,0.0,0.0,73,0.00,,,0.87,Weather View 32 v70,2013-06-10 19:10:00,
2013-06-10 15:20:00,72.0,60.8,29.12,ESE,105,0.0,3.0,68,0.00,,,0.87,Weather View 32 v70,2013-06-10 19:20:00,
2013-06-10 15:30:00,72.0,59.1,29.09,SE,130,0.0,3.0,64,0.00,,,0.87,Weather View 32 v70,2013-06-10 19:30:00,
2013-06-10 15:40:00,72.3,59.0,29.12,East,101,0.0,3.0,63,0.00,,,0.87,Weather View 32 v70,2013-06-10 19:40:00,
2013-06-10 15:50:00,72.5,58.2,29.09,ESE,109,0.0,3.0,61,0.00,,,0.87,Weather View 32 v70,2013-06-10 19:50:00,
2013-06-10 16:00:00,73.2,57.5,29.09,SE,124,0.0,3.0,58,0.00,,,0.87,Weather View 32 v70,2013-06-10 20:00:00,
2013-06-10 16:10:00,73.2,58.0,29.09,ENE,71,0.0,3.0,59,0.00,,,0.87,Weather View 32 v70,2013-06-10 20:10:00,
2013-06-10 16:20:00,72.7,57.5,29.09,ENE,71,0.0,3.0,59,0.00,,,0.87,Weather View 32 v70,2013-06-10 20:20:00,
2013-06-10 16:30:00,72.5,57.3,29.09,ESE,102,0.0,3.0,59,0.00,,,0.87,Weather View 32 v70,2013-06-10 20:30:00,
2013-06-10 16:40:00,72.9,59.0,29.09,ESE,112,0.0,3.0,62,0.00,,,0.87,Weather View 32 v70,2013-06-10 20:40:00,
2013-06-10 16:50:00,73.4,59.5,29.09,ESE,112,0.0,3.0,62,0.00,,,0.87,Weather View 32 v70,2013-06-10 20:50:00,
2013-06-10 17:00:00,73.4,58.6,29.09,ESE,112,0.0,3.0,60,0.00,,,0.87,Weather View 32 v70,2013-06-10 21:00:00,
2013-06-10 17:10:00,72.9,59.0,29.09,West,266,0.0,3.0,62,0.00,,,0.87,Weather View 32 v70,2013-06-10 21:10:00,
2013-06-10 17:20:00,72.5,58.7,29.09,NE,42,0.0,3.0,62,0.00,,,0.87,Weather View 32 v70,2013-06-10 21:20:00,
2013-06-10 17:30:00,72.1,58.8,29.09,WNW,294,0.0,3.0,63,0.00,,,0.87,Weather View 32 v70,2013-06-10 21:30:00,
2013-06-10 17:40:00,72.0,59.5,29.09,NW,317,0.0,3.0,65,0.00,,,0.87,Weather View 32 v70,2013-06-10 21:40:00,
2013-06-10 17:50:00,71.6,59.6,29.09,NNW,334,0.0,3.0,66,0.00,,,0.87,Weather View 32 v70,2013-06-10 21:50:00,
2013-06-10 18:00:00,71.4,59.4,29.09,NNW,334,0.0,3.0,66,0.00,,,0.87,Weather View 32 v70,2013-06-10 22:00:00,
2013-06-10 18:10:00,71.1,59.5,29.09,SSW,211,0.0,3.0,67,0.00,,,0.87,Weather View 32 v70,2013-06-10 22:10:00,
2013-06-10 18:20:00,70.7,59.2,29.09,SW,228,0.0,0.0,67,0.00,,,0.87,Weather View 32 v70,2013-06-10 22:20:00,
2013-06-10 18:30:00,70.5,59.4,29.09,SW,228,0.0,0.0,68,0.00,,,0.87,Weather View 32 v70,2013-06-10 22:30:00,
2013-06-10 18:40:00,70.3,59.7,29.09,SW,236,0.0,0.0,69,0.00,,,0.87,Weather View 32 v70,2013-06-10 22:40:00,
2013-06-10 18:50:00,70.2,59.5,29.09,North,357,0.0,0.0,69,0.00,,,0.87,Weather View 32 v70,2013-06-10 22:50:00,
2013-06-10 19:00:00,70.0,59.3,29.09,West,261,0.0,0.0,69,0.00,,,0.87,Weather View 32 v70,2013-06-10 23:00:00,
2013-06-10 19:10:00,69.6,59.4,29.09,West,261,0.0,0.0,70,0.00,,,0.87,Weather View 32 v70,2013-06-10 23:10:00,
2013-06-10 19:20:00,69.6,59.4,29.09,NW,324,0.0,0.0,70,0.00,,,0.87,Weather View 32 v70,2013-06-10 23:20:00,
2013-06-10 19:30:00,69.6,59.8,29.09,NW,324,0.0,0.0,71,0.00,,,0.87,Weather View 32 v70,2013-06-10 23:30:00,
2013-06-10 19:40:00,69.6,59.8,29.06,NW,324,0.0,0.0,71,0.00,,,0.87,Weather View 32 v70,2013-06-10 23:40:00,
2013-06-10 19:45:00,69.6,59.8,29.06,NW,324,0.0,0.0,71,0.00,,,0.87,Weather View 32 v70,2013-06-10 23:45:00,
2013-06-10 20:00:00,69.4,60.0,29.09,NW,324,0.0,0.0,72,0.00,,,0.87,Weather View 32 v70,2013-06-11 00:00:00,
2013-06-10 20:10:00,69.4,59.6,29.09,NW,324,0.0,0.0,71,0.00,,,0.87,Weather View 32 v70,2013-06-11 00:10:00,
2013-06-10 20:20:00,69.3,59.4,29.09,NW,324,0.0,0.0,71,0.00,,,0.87,Weather View 32 v70,2013-06-11 00:20:00,
2013-06-10 20:30:00,69.1,59.6,29.09,North,0,0.0,0.0,72,0.00,,,0.87,Weather View 32 v70,2013-06-11 00:30:00,
2013-06-10 20:40:00,68.9,59.9,29.09,NNW,345,0.0,3.0,73,0.00,,,0.87,Weather View 32 v70,2013-06-11 00:40:00,
2013-06-10 20:46:00,68.9,59.9,29.09,NNW,345,0.0,3.0,73,0.00,,,0.87,Weather View 32 v70,2013-06-11 00:46:00,
2013-06-10 21:00:00,67.8,60.0,29.09,NNW,342,0.0,3.0,76,0.00,,,0.87,Weather View 32 v70,2013-06-11 01:00:00,
2013-06-10 21:10:00,67.5,59.6,29.09,North,2,0.0,3.0,76,0.00,,,0.87,Weather View 32 v70,2013-06-11 01:10:00,
2013-06-10 21:20:00,67.1,59.6,29.09,NW,321,2.0,3.0,77,0.00,,,0.87,Weather View 32 v70,2013-06-11 01:20:00,
2013-06-10 21:30:00,66.9,60.2,29.09,NW,320,0.0,3.0,79,0.00,,,0.87,Weather View 32 v70,2013-06-11 01:30:00,
2013-06-10 21:40:00,66.6,60.2,29.09,NNW,339,0.0,3.0,80,0.00,,,0.87,Weather View 32 v70,2013-06-11 01:40:00,
2013-06-10 21:47:00,66.6,60.2,29.09,NNW,339,0.0,3.0,80,0.00,,,0.87,Weather View 32 v70,2013-06-11 01:47:00,
2013-06-10 22:00:00,66.2,59.8,29.12,NW,318,0.0,3.0,80,0.00,,,0.87,Weather View 32 v70,2013-06-11 02:00:00,
2013-06-10 22:10:00,66.0,60.0,29.12,North,3,0.0,3.0,81,0.00,,,0.87,Weather View 32 v70,2013-06-11 02:10:00,
2013-06-10 22:20:00,65.8,60.2,29.12,North,3,0.0,3.0,82,0.00,,,0.87,Weather View 32 v70,2013-06-11 02:20:00,
2013-06-10 22:30:00,65.8,60.2,29.12,North,3,0.0,3.0,82,0.00,,,0.87,Weather View 32 v70,2013-06-11 02:30:00,
2013-06-10 22:40:00,65.7,60.0,29.12,North,3,0.0,3.0,82,0.00,,,0.87,Weather View 32 v70,2013-06-11 02:40:00,
2013-06-10 22:48:00,65.7,60.0,29.12,North,3,0.0,3.0,82,0.00,,,0.87,Weather View 32 v70,2013-06-11 02:48:00,
2013-06-10 23:00:00,65.5,60.2,29.12,NNW,340,0.0,3.0,83,0.00,,,0.87,Weather View 32 v70,2013-06-11 03:00:00,
2013-06-10 23:10:00,65.3,60.0,29.12,NNW,334,0.0,3.0,83,0.00,,,0.87,Weather View 32 v70,2013-06-11 03:10:00,
2013-06-10 23:20:00,65.1,60.1,29.12,NW,315,0.0,3.0,84,0.00,,,0.87,Weather View 32 v70,2013-06-11 03:20:00,
2013-06-10 23:30:00,65.1,60.1,29.12,NNW,346,0.0,3.0,84,0.00,,,0.87,Weather View 32 v70,2013-06-11 03:30:00,
2013-06-10 23:40:00,64.9,60.0,29.12,North,1,0.0,3.0,84,0.00,,,0.87,Weather View 32 v70,2013-06-11 03:40:00,
2013-06-10 23:48:00,64.9,60.0,29.12,North,1,0.0,3.0,84,0.00,,,0.87,Weather View 32 v70,2013-06-11 03:48:00,